When you browse on this site, cookies collect data to enhance your experience and personalize the content and advertising you see.
Visit our Privacy Policy to learn more. By continuing to use the site, you agree to this use of cookies and data.
  • In United Kingdom
  • List of Countries
  • For 7 days
  • Water Temperature
  • Weather Map
  • Weather Widgets
  • user-avatar
    Login

    Hourly Weather Khorfakkan

    Today, 18 October, Friday

    Time Temperature Precipitation Wind Pressure Humidity
    00:00 +29°C° 0 mm 1 mps 737 mmHg 49%
    01:00 +29°C° 0 mm 1 mps 737 mmHg 53%
    02:00 +28°C° 0 mm 1 mps 737 mmHg 54%
    03:00 +28°C° 0 mm 1 mps 736 mmHg 55%
    04:00 +27°C° 0 mm 1 mps 736 mmHg 56%
    05:00 +28°C° 0 mm 1 mps 737 mmHg 53%
    06:00 +28°C° 0 mm 1 mps 737 mmHg 50%
    07:00 +29°C° 0 mm 1 mps 738 mmHg 47%
    08:00 +31°C° 0 mm 1 mps 738 mmHg 38%
    09:00 +33°C° 0 mm 1 mps 738 mmHg 30%
    10:00 +35°C° 0 mm 1 mps 738 mmHg 22%
    11:00 +36°C° 0 mm 1 mps 738 mmHg 21%
    12:00 +38°C° 0 mm 2 mps 737 mmHg 19%
    13:00 +39°C° 0 mm 2 mps 737 mmHg 17%
    14:00 +38°C° 0 mm 2 mps 736 mmHg 19%
    15:00 +38°C° 0 mm 2 mps 736 mmHg 21%
    16:00 +37°C° 0 mm 3 mps 735 mmHg 24%
    17:00 +36°C° 0 mm 2 mps 736 mmHg 28%
    18:00 +34°C° 0 mm 1 mps 736 mmHg 33%
    19:00 +32°C° 0 mm 1 mps 736 mmHg 37%
    20:00 +32°C° 0 mm 1 mps 736 mmHg 41%
    21:00 +29°C° 0 mm 0 mps 736 mmHg 45%
    22:00 +29°C° 0 mm 0 mps 736 mmHg 49%
    23:00 +28°C° 0 mm 0 mps 736 mmHg 51%

    Tomorrow, 19 October, Saturday

    Time Temperature Precipitation Wind Pressure Humidity
    00:00 +29°C° 0 mm 1 mps 736 mmHg 54%
    01:00 +29°C° 0 mm 1 mps 736 mmHg 57%
    02:00 +28°C° 0 mm 1 mps 736 mmHg 56%
    03:00 +28°C° 0 mm 1 mps 736 mmHg 56%
    04:00 +26°C° 0 mm 0 mps 735 mmHg 55%
    05:00 +28°C° 0 mm 1 mps 736 mmHg 50%
    06:00 +29°C° 0 mm 1 mps 737 mmHg 45%
    07:00 +29°C° 0 mm 1 mps 737 mmHg 40%
    08:00 +31°C° 0 mm 1 mps 738 mmHg 32%
    09:00 +33°C° 0 mm 1 mps 738 mmHg 25%
    10:00 +36°C° 0 mm 1 mps 738 mmHg 17%
    11:00 +37°C° 0 mm 2 mps 738 mmHg 16%
    12:00 +38°C° 0 mm 2 mps 737 mmHg 15%
    13:00 +39°C° 0 mm 2 mps 737 mmHg 13%
    14:00 +38°C° 0 mm 2 mps 737 mmHg 15%
    15:00 +38°C° 0 mm 2 mps 736 mmHg 16%
    16:00 +37°C° 0 mm 2 mps 736 mmHg 18%
    17:00 +36°C° 0 mm 2 mps 736 mmHg 23%
    18:00 +34°C° 0 mm 1 mps 736 mmHg 28%
    19:00 +32°C° 0 mm 1 mps 737 mmHg 33%
    20:00 +32°C° 0 mm 1 mps 737 mmHg 35%
    21:00 +31°C° 0 mm 1 mps 737 mmHg 36%
    22:00 +31°C° 0 mm 1 mps 737 mmHg 37%
    23:00 +30°C° 0 mm 1 mps 737 mmHg 38%

    Day after tomorrow, 20 October, Sunday

    Time Temperature Precipitation Wind Pressure Humidity
    00:00 +30°C° 0 mm 1 mps 737 mmHg 38%
    01:00 +29°C° 0 mm 1 mps 737 mmHg 39%
    02:00 +29°C° 0 mm 1 mps 736 mmHg 37%
    03:00 +29°C° 0 mm 1 mps 736 mmHg 35%
    04:00 +28°C° 0 mm 1 mps 736 mmHg 33%
    05:00 +29°C° 0 mm 1 mps 737 mmHg 31%
    06:00 +29°C° 0 mm 1 mps 737 mmHg 29%
    07:00 +29°C° 0 mm 1 mps 737 mmHg 28%
    08:00 +31°C° 0 mm 1 mps 738 mmHg 24%
    09:00 +34°C° 0 mm 2 mps 738 mmHg 21%
    10:00 +36°C° 0 mm 2 mps 738 mmHg 18%
    11:00 +37°C° 0 mm 2 mps 738 mmHg 17%
    12:00 +38°C° 0 mm 3 mps 737 mmHg 17%
    13:00 +38°C° 0 mm 3 mps 737 mmHg 16%
    14:00 +38°C° 0 mm 3 mps 737 mmHg 18%
    15:00 +37°C° 0 mm 2 mps 736 mmHg 19%
    16:00 +37°C° 0 mm 2 mps 736 mmHg 21%
    17:00 +35°C° 0 mm 1 mps 736 mmHg 23%
    18:00 +34°C° 0 mm 1 mps 736 mmHg 25%
    19:00 +30°C° 0 mm 0 mps 736 mmHg 28%
    20:00 +32°C° 0 mm 1 mps 737 mmHg 30%
    21:00 +31°C° 0 mm 1 mps 737 mmHg 32%
    22:00 +31°C° 0 mm 1 mps 737 mmHg 35%
    23:00 +30°C° 0 mm 1 mps 737 mmHg 36%

    21 October, Monday

    Time Temperature Precipitation Wind Pressure Humidity
    00:00 +30°C° 0 mm 1 mps 737 mmHg 37%
    01:00 +29°C° 0 mm 1 mps 737 mmHg 39%
    02:00 +29°C° 0 mm 1 mps 736 mmHg 39%
    03:00 +28°C° 0 mm 1 mps 736 mmHg 40%
    04:00 +28°C° 0 mm 1 mps 736 mmHg 40%
    05:00 +28°C° 0 mm 1 mps 736 mmHg 42%
    06:00 +28°C° 0 mm 2 mps 737 mmHg 43%
    07:00 +28°C° 0 mm 2 mps 737 mmHg 44%
    08:00 +30°C° 0 mm 2 mps 737 mmHg 38%
    09:00 +32°C° 0 mm 2 mps 738 mmHg 32%
    10:00 +34°C° 0 mm 1 mps 738 mmHg 26%
    11:00 +36°C° 0 mm 2 mps 737 mmHg 24%
    12:00 +37°C° 0 mm 2 mps 737 mmHg 22%
    13:00 +38°C° 0 mm 2 mps 736 mmHg 21%
    14:00 +37°C° 0 mm 2 mps 736 mmHg 23%
    15:00 +36°C° 0 mm 2 mps 735 mmHg 25%
    16:00 +36°C° 0 mm 2 mps 735 mmHg 27%
    17:00 +34°C° 0 mm 2 mps 735 mmHg 32%
    18:00 +32°C° 0 mm 2 mps 735 mmHg 37%
    19:00 +30°C° 0 mm 1 mps 736 mmHg 42%
    20:00 +30°C° 0 mm 1 mps 736 mmHg 43%
    21:00 +30°C° 0 mm 1 mps 736 mmHg 44%
    22:00 +29°C° 0 mm 1 mps 736 mmHg 44%
    23:00 +29°C° 0 mm 1 mps 736 mmHg 45%

    22 October, Tuesday

    Time Temperature Precipitation Wind Pressure Humidity
    00:00 +28°C° 0 mm 1 mps 735 mmHg 46%
    01:00 +28°C° 0 mm 1 mps 735 mmHg 47%
    02:00 +28°C° 0 mm 1 mps 735 mmHg 47%
    03:00 +25°C° 0 mm 0 mps 735 mmHg 46%
    04:00 +25°C° 0 mm 0 mps 735 mmHg 45%
    05:00 +25°C° 0 mm 0 mps 735 mmHg 43%
    06:00 +26°C° 0 mm 0 mps 735 mmHg 42%
    07:00 +26°C° 0 mm 0 mps 736 mmHg 40%
    08:00 +30°C° 0 mm 1 mps 736 mmHg 35%
    09:00 +32°C° 0 mm 1 mps 737 mmHg 31%
    10:00 +34°C° 0 mm 1 mps 737 mmHg 26%
    11:00 +36°C° 0 mm 2 mps 737 mmHg 22%
    12:00 +37°C° 0 mm 2 mps 736 mmHg 19%
    13:00 +38°C° 0 mm 3 mps 735 mmHg 16%
    14:00 +38°C° 0 mm 3 mps 735 mmHg 19%
    15:00 +37°C° 0 mm 3 mps 735 mmHg 22%
    16:00 +36°C° 0 mm 2 mps 735 mmHg 25%
    17:00 +35°C° 0 mm 2 mps 735 mmHg 29%
    18:00 +33°C° 0 mm 1 mps 735 mmHg 34%
    19:00 +29°C° 0 mm 0 mps 735 mmHg 38%
    20:00 +31°C° 0 mm 1 mps 735 mmHg 38%
    21:00 +30°C° 0 mm 1 mps 735 mmHg 39%
    22:00 +29°C° 0 mm 2 mps 736 mmHg 39%
    23:00 +29°C° 0 mm 1 mps 735 mmHg 38%

    23 October, Wednesday

    Time Temperature Precipitation Wind Pressure Humidity
    00:00 +29°C° 0 mm 1 mps 735 mmHg 37%
    01:00 +28°C° 0 mm 1 mps 735 mmHg 36%
    02:00 +28°C° 0 mm 1 mps 735 mmHg 36%
    03:00 +27°C° 0 mm 1 mps 735 mmHg 37%
    04:00 +25°C° 0 mm 0 mps 735 mmHg 37%
    05:00 +25°C° 0 mm 0 mps 735 mmHg 36%
    06:00 +26°C° 0 mm 0 mps 735 mmHg 36%
    07:00 +28°C° 0 mm 1 mps 736 mmHg 35%
    08:00 +30°C° 0 mm 1 mps 736 mmHg 31%
    09:00 +33°C° 0 mm 1 mps 736 mmHg 26%
    10:00 +35°C° 0 mm 1 mps 737 mmHg 22%
    11:00 +35°C° 0 mm 1 mps 736 mmHg 20%
    12:00 +37°C° 0 mm 2 mps 736 mmHg 19%
    13:00 +38°C° 0 mm 2 mps 735 mmHg 18%
    14:00 +38°C° 0 mm 2 mps 735 mmHg 19%
    15:00 +37°C° 0 mm 2 mps 735 mmHg 20%
    16:00 +37°C° 0 mm 2 mps 734 mmHg 22%
    17:00 +35°C° 0 mm 2 mps 734 mmHg 26%
    18:00 +33°C° 0 mm 1 mps 735 mmHg 31%
    19:00 +32°C° 0 mm 1 mps 735 mmHg 35%
    20:00 +31°C° 0 mm 1 mps 735 mmHg 38%
    21:00 +31°C° 0 mm 1 mps 735 mmHg 40%
    22:00 +30°C° 0 mm 1 mps 735 mmHg 43%
    23:00 +27°C° 0 mm 0 mps 735 mmHg 43%
    Show more